Location: Byszew
(52.1813°N, 19.2693°E)
Time: 13:36:27
(UTC+00:00)

BREEZE-M DEB (TANK) - Pass Details

Date: 03 March 2021
Orbit: 308 x 15403 km, 49.5° (Epoch: 12 April)

Event Time Altitude Azimuth Distance (km) Brightness Sun altitude
Rises 19:47:40 0° 275° (W) 2,366 6.4 -30.4°
Reaches altitude 10° 19:49:03 10° 269° (W) 1,745 5.5 -30.6°
Enters shadow 19:50:22 26° 255° (WSW) 1,264 4.4 -30.8°
